Location: Anglesey
(53.1800°N, 4.2200°W)
Time: 06:35:16
(UTC+00:00)

ISS - Visible Passes

Search period start: 23 February 2024 00:00
Search period end: 04 March 2024 00:00
Orbit: 414 x 417 km, 51.6° (Epoch: 22 February)

Date Brightness Start Highest point End Pass type
(mag) Time Alt. Az. Time Alt. Az. Time Alt. Az.
23 Feb -2.6 05:05:33 33° SSE 05:05:43 33° SSE 05:08:47 10° E visible
23 Feb -3.5 06:38:51 10° WSW 06:42:11 67° S 06:45:31 10° E visible
24 Feb -1.1 04:18:40 17° ESE 04:18:40 17° ESE 04:19:51 10° E visible
24 Feb -3.5 05:51:32 23° WSW 05:53:23 60° S 05:56:42 10° E visible
25 Feb -3.3 05:04:28 51° SSE 05:04:28 51° SSE 05:07:42 10° E visible
26 Feb -1.3 04:17:10 21° E 04:17:10 21° E 04:18:30 10° E visible
26 Feb -3.7 05:50:01 24° WSW 05:51:49 69° S 05:55:09 10° E visible
27 Feb -3.7 05:02:30 65° S 05:02:30 65° S 05:05:49 10° E visible
27 Feb -3.3 06:35:46 10° W 06:39:02 53° SSW 06:42:17 10° ESE visible
28 Feb -1.4 04:14:52 23° E 04:14:52 23° E 04:16:17 10° E visible
28 Feb -3.6 05:47:41 24° W 05:49:32 62° S 05:52:49 10° ESE visible
29 Feb -3.8 04:59:52 67° S 04:59:52 67° S 05:03:09 10° E visible
01 Mar -1.5 04:11:55 23° E 04:11:55 23° E 04:13:17 10° E visible
01 Mar -3.3 05:44:43 23° W 05:46:27 46° SSW 05:49:39 10° ESE visible
02 Mar -3.6 04:56:37 55° S 04:56:37 55° S 04:59:42 10° ESE visible
03 Mar -1.3 04:08:23 20° ESE 04:08:23 20° ESE 04:09:31 10° ESE visible
03 Mar -2.7 05:41:10 21° WSW 05:42:33 30° SSW 05:45:29 10° SE visible
